Lid_Strength_Index
4 6 8 6 6 6 7 8 8 7 5 6 6 6 5 4 4 4 4 4 4 4 4 3 2 1 1 0 0 -1 -1 -2 -1 -0 1 1 1 0 -0 -1 -2 -1 -1 -1
6 7 5 5 6 6 6 7 8 6 6 6 6 7 5 5 4 4 4 4 4 4 4 3 2 1 1 1 1 0 0 -1 -1 0 0 0 0 0 -0 -1 -1 -2 -2 -2
7 6 5 6 6 7 7 8 8 8 6 6 7 8 7 5 5 4 4 3 3 4 4 3 2 2 1 1 1 1 1 0 0 -0 -0 0 0 0 0 0 0 -0 -1 -1
6 5 6 7 7 6 8 6 7 7 8 10 7 11 8 6 6 5 5 4 4 3 4 3 3 1 2 2 1 1 0 -0 -0 -1 -0 0 2 2 1 1 0 -0 -1 -1
7 6 6 7 7 6 7 6 6 7 8 8 8 10 9 6 7 6 5 4 4 3 3 4 4 2 1 1 0 -0 -0 -1 -1 -2 -2 0 1 1 1 0 0 0 -0 -1
6 4 5 6 5 5 5 6 7 7 8 11 9 10 10 8 7 6 5 4 4 3 3 3 2 2 1 1 0 -0 -0 0 -1 -1 -1 0 1 1 1 1 1 1 0 -0
7 7 5 5 6 5 6 8 11 12 12 13 8 10 9 6 6 5 5 4 4 3 3 3 3 3 2 1 1 1 1 1 -0 -0 -0 -0 0 0 1 1 1 1 1 2
10 10 7 5 6 7 7 8 11 15 13 12 8 11 9 6 5 4 4 4 3 3 3 3 2 2 2 1 1 1 1 1 0 0 0 0 -0 0 1 0 1 1 1 2
9 10 6 6 5 6 7 9 7 10 10 12 10 9 7 5 5 5 5 4 4 3 3 3 2 2 1 1 1 0 0 0 0 0 0 0 0 0 1 0 1 2 1 1
7 10 6 6 5 5 6 6 10 10 15 14 11 10 11 8 7 5 5 5 4 3 3 3 2 1 0 1 -0 -0 1 1 0 0 0 0 0 0 0 0 0 2 2 1
5 7 8 6 8 9 7 8 8 8 10 14 14 11 7 7 6 6 5 4 4 3 3 3 2 1 1 1 2 1 1 1 1 0 0 0 0 0 0 1 1 2 2 2
6 7 10 9 6 5 6 7 7 11 12 10 11 11 5 5 5 5 5 4 3 3 3 2 2 2 2 1 1 1 1 1 1 0 0 1 0 1 1 2 3 3 3 3
6 8 12 10 8 6 8 7 7 7 8 12 14 12 5 5 5 4 5 4 3 3 3 2 2 2 2 2 2 1 1 1 1 1 1 1 1 2 3 3 3 3 4 5
4 7 10 12 10 8 8 8 7 8 11 11 10 9 7 6 6 5 4 4 4 3 3 3 2 2 2 2 2 1 1 1 1 1 2 2 2 3 3 3 4 4 5 5
5 10 8 8 7 7 8 8 7 8 8 10 9 9 7 6 5 5 4 4 4 4 3 3 3 2 3 2 2 1 1 1 1 1 2 2 3 4 4 4 4 4 4 4
5 9 8 9 7 7 8 7 7 7 7 7 8 8 5 4 4 4 4 4 4 4 3 3 2 2 3 3 2 1 1 1 1 2 3 3 4 4 4 4 4 4 3 3
7 9 10 12 8 8 11 8 8 7 6 7 9 7 5 5 5 5 4 4 4 4 3 3 3 2 2 2 2 2 1 1 2 3 3 3 4 4 4 5 5 3 3 3
8 9 9 11 9 15 8 5 6 7 6 6 6 6 5 5 4 4 3 4 4 3 3 3 2 2 2 2 2 1 1 1 3 4 3 3 4 4 5 5 4 3 3 3
5 8 11 13 12 10 8 7 7 8 8 6 6 5 5 4 4 5 3 3 3 3 2 2 2 1 1 2 2 1 2 3 4 3 4 4 4 5 6 5 4 4 4 3
7 9 10 12 14 15 9 6 5 5 10 5 5 5 5 5 8 7 3 3 2 2 2 2 1 1 1 2 2 1 3 4 4 4 4 4 4 5 5 4 4 3 3 3
10 10 12 12 15 12 8 7 4 11 11 5 5 4 5 6 5 3 3 3 2 2 2 1 1 2 1 2 2 2 3 5 5 4 4 4 4 5 5 4 4 3 3 3
11 12 12 12 14 15 6 7 11 6 4 4 4 4 4 4 3 3 3 3 2 2 2 1 2 2 1 2 3 3 4 4 4 4 4 4 5 5 5 4 3 3 3 4
11 9 12 11 11 7 5 6 5 4 4 4 4 3 3 4 4 3 3 3 2 2 2 1 2 1 1 2 3 4 4 4 4 4 4 4 5 6 4 4 5 4 4 4
6 6 8 9 6 5 5 4 4 4 4 4 3 3 3 4 3 3 3 3 2 2 2 1 2 2 3 4 4 3 4 4 4 4 4 4 6 7 4 5 6 5 6 5
6 6 6 7 5 5 4 4 4 4 3 3 3 3 3 3 3 3 3 3 2 2 2 1 2 2 3 4 4 3 4 4 5 5 4 4 6 7 5 6 8 6 6 7
5 6 8 9 5 5 5 3 3 4 3 3 3 3 3 2 3 3 3 2 2 2 2 2 2 2 3 4 4 3 4 4 4 5 4 5 6 7 5 5 4 7 8 8